datum;grugatrasse_r�ttenscheid_west;grugatrasse_ruhr_ost;huyssenallee_r�ttenscheid_s�d;huyssenallee_stadtkern_nord
01.07.2022 00:00;0;0;5;2
01.07.2022 01:00;0;0;1;2
01.07.2022 02:00;0;0;0;0
01.07.2022 03:00;0;0;1;0
01.07.2022 04:00;1;0;0;3
01.07.2022 05:00;15;7;4;3
01.07.2022 06:00;56;20;9;22
01.07.2022 07:00;75;38;15;36
01.07.2022 08:00;63;32;21;45
01.07.2022 09:00;37;29;14;33
01.07.2022 10:00;44;37;16;22
01.07.2022 11:00;46;48;22;20
01.07.2022 12:00;43;74;20;35
01.07.2022 13:00;51;72;43;28
01.07.2022 14:00;56;93;46;30
01.07.2022 15:00;87;139;39;24
01.07.2022 16:00;78;100;37;24
01.07.2022 17:00;91;105;39;27
01.07.2022 18:00;107;87;44;21
01.07.2022 19:00;70;59;25;20
01.07.2022 20:00;69;43;13;14
01.07.2022 21:00;43;23;21;10
01.07.2022 22:00;12;26;9;11
01.07.2022 23:00;3;1;7;8
02.07.2022 00:00;1;7;9;5
02.07.2022 01:00;1;12;4;3
02.07.2022 02:00;1;0;1;1
02.07.2022 03:00;1;3;0;1
02.07.2022 04:00;0;2;0;2
02.07.2022 05:00;6;2;6;3
02.07.2022 06:00;10;4;1;9
02.07.2022 07:00;18;11;5;11
02.07.2022 08:00;31;39;9;7
02.07.2022 09:00;51;80;13;20
02.07.2022 10:00;116;137;18;32
02.07.2022 11:00;121;155;25;19
02.07.2022 12:00;133;196;35;34
02.07.2022 13:00;139;185;24;38
02.07.2022 14:00;195;147;41;27
02.07.2022 15:00;140;145;20;24
02.07.2022 16:00;181;122;25;28
02.07.2022 17:00;112;99;31;22
02.07.2022 18:00;124;111;27;17
02.07.2022 19:00;84;70;18;12
02.07.2022 20:00;63;36;17;10
02.07.2022 21:00;46;39;13;8
02.07.2022 22:00;40;7;15;7
02.07.2022 23:00;15;8;8;9
03.07.2022 00:00;7;8;9;6
03.07.2022 01:00;0;4;4;4
03.07.2022 02:00;1;4;5;3
03.07.2022 03:00;2;0;2;4
03.07.2022 04:00;1;1;1;2
03.07.2022 05:00;4;2;6;1
03.07.2022 06:00;9;9;3;6
03.07.2022 07:00;14;18;6;5
03.07.2022 08:00;24;39;6;12
03.07.2022 09:00;54;117;3;12
03.07.2022 10:00;143;161;11;17
03.07.2022 11:00;158;197;14;29
03.07.2022 12:00;209;225;24;31
03.07.2022 13:00;231;205;23;30
03.07.2022 14:00;201;198;12;22
03.07.2022 15:00;201;179;28;30
03.07.2022 16:00;172;160;23;28
03.07.2022 17:00;152;200;26;25
03.07.2022 18:00;132;101;15;25
03.07.2022 19:00;109;93;25;19
03.07.2022 20:00;49;28;8;15
03.07.2022 21:00;21;15;11;5
03.07.2022 22:00;5;5;5;3
03.07.2022 23:00;2;1;4;1
04.07.2022 00:00;3;0;1;2
04.07.2022 01:00;0;1;0;0
04.07.2022 02:00;0;1;0;0
04.07.2022 03:00;0;0;0;1
04.07.2022 04:00;3;1;0;2
04.07.2022 05:00;24;13;6;9
04.07.2022 06:00;88;30;18;34
04.07.2022 07:00;136;53;25;73
04.07.2022 08:00;107;54;30;77
04.07.2022 09:00;60;53;21;33
04.07.2022 10:00;64;77;13;29
04.07.2022 11:00;67;90;21;30
04.07.2022 12:00;98;80;27;31
04.07.2022 13:00;67;109;44;28
04.07.2022 14:00;91;127;37;39
04.07.2022 15:00;106;161;62;38
04.07.2022 16:00;139;167;81;44
04.07.2022 17:00;112;169;67;49
04.07.2022 18:00;131;142;65;33
04.07.2022 19:00;94;78;37;33
04.07.2022 20:00;76;58;25;10
04.07.2022 21:00;37;25;18;9
04.07.2022 22:00;18;11;7;6
04.07.2022 23:00;1;2;10;6
05.07.2022 00:00;1;1;2;9
05.07.2022 01:00;0;0;6;2
05.07.2022 02:00;1;0;0;0
05.07.2022 03:00;0;1;0;0
05.07.2022 04:00;0;1;0;3
05.07.2022 05:00;30;10;7;14
05.07.2022 06:00;100;35;13;37
05.07.2022 07:00;131;54;35;82
05.07.2022 08:00;114;49;27;87
05.07.2022 09:00;68;72;15;37
05.07.2022 10:00;86;94;16;29
05.07.2022 11:00;75;74;23;36
05.07.2022 12:00;63;98;32;39
05.07.2022 13:00;86;92;34;41
05.07.2022 14:00;84;126;39;29
05.07.2022 15:00;106;136;55;39
05.07.2022 16:00;124;170;66;45
05.07.2022 17:00;95;170;67;45
05.07.2022 18:00;106;122;55;27
05.07.2022 19:00;74;63;43;24
05.07.2022 20:00;48;38;21;15
05.07.2022 21:00;19;22;18;12
05.07.2022 22:00;15;13;10;8
05.07.2022 23:00;2;6;3;3
06.07.2022 00:00;0;2;4;3
06.07.2022 01:00;1;0;1;1
06.07.2022 02:00;3;0;0;0
06.07.2022 03:00;0;0;0;1
06.07.2022 04:00;1;2;1;5
06.07.2022 05:00;20;12;5;10
06.07.2022 06:00;85;28;16;27
06.07.2022 07:00;131;50;34;78
06.07.2022 08:00;100;46;21;84
06.07.2022 09:00;51;57;25;34
06.07.2022 10:00;65;61;16;30
06.07.2022 11:00;70;73;20;30
06.07.2022 12:00;53;101;28;31
06.07.2022 13:00;77;112;30;25
06.07.2022 14:00;94;104;38;25
06.07.2022 15:00;85;116;47;42
06.07.2022 16:00;96;142;54;35
06.07.2022 17:00;89;149;71;51
06.07.2022 18:00;126;131;68;36
06.07.2022 19:00;109;97;43;19
06.07.2022 20:00;61;57;19;12
06.07.2022 21:00;37;19;14;5
06.07.2022 22:00;15;14;16;9
06.07.2022 23:00;3;8;8;2
07.07.2022 00:00;0;4;5;3
07.07.2022 01:00;0;0;0;0
07.07.2022 02:00;0;0;0;1
07.07.2022 03:00;0;0;0;0
07.07.2022 04:00;0;1;0;2
07.07.2022 05:00;12;5;7;5
07.07.2022 06:00;45;14;9;16
07.07.2022 07:00;39;17;18;24
07.07.2022 08:00;37;16;18;44
07.07.2022 09:00;24;16;9;21
07.07.2022 10:00;18;19;8;12
07.07.2022 11:00;9;15;11;24
07.07.2022 12:00;12;25;24;16
07.07.2022 13:00;26;18;17;14
07.07.2022 14:00;29;55;23;18
07.07.2022 15:00;40;41;30;23
07.07.2022 16:00;43;67;28;25
07.07.2022 17:00;37;68;45;33
07.07.2022 18:00;69;69;47;24
07.07.2022 19:00;42;47;25;21
07.07.2022 20:00;39;17;9;15
07.07.2022 21:00;19;18;10;8
07.07.2022 22:00;9;6;9;6
07.07.2022 23:00;0;7;5;6
08.07.2022 00:00;0;1;4;1
08.07.2022 01:00;0;3;1;1
08.07.2022 02:00;0;1;2;0
08.07.2022 03:00;0;0;1;1
08.07.2022 04:00;1;1;0;4
08.07.2022 05:00;21;8;5;8
08.07.2022 06:00;55;19;8;15
08.07.2022 07:00;86;32;13;61
08.07.2022 08:00;81;30;12;60
08.07.2022 09:00;32;33;18;30
08.07.2022 10:00;56;79;27;23
08.07.2022 11:00;69;89;18;31
08.07.2022 12:00;77;77;40;25
08.07.2022 13:00;87;93;37;37
08.07.2022 14:00;90;132;69;30
08.07.2022 15:00;94;138;47;31
08.07.2022 16:00;93;130;39;37
08.07.2022 17:00;99;104;46;24
08.07.2022 18:00;88;115;28;50
08.07.2022 19:00;65;51;28;26
08.07.2022 20:00;45;31;32;10
08.07.2022 21:00;43;27;10;14
08.07.2022 22:00;18;20;17;16
08.07.2022 23:00;11;4;11;8
09.07.2022 00:00;3;5;12;6
09.07.2022 01:00;5;2;4;4
09.07.2022 02:00;3;0;3;3
09.07.2022 03:00;1;0;4;0
09.07.2022 04:00;0;0;2;2
09.07.2022 05:00;4;2;3;1
09.07.2022 06:00;2;6;1;4
09.07.2022 07:00;17;16;6;12
09.07.2022 08:00;23;34;5;4
09.07.2022 09:00;49;73;10;25
09.07.2022 10:00;65;99;13;22
09.07.2022 11:00;104;117;17;23
09.07.2022 12:00;101;128;26;35
09.07.2022 13:00;104;135;28;23
09.07.2022 14:00;80;81;23;14
09.07.2022 15:00;65;79;23;13
09.07.2022 16:00;82;98;18;13
09.07.2022 17:00;91;90;9;23
09.07.2022 18:00;71;76;19;20
09.07.2022 19:00;80;34;31;26
09.07.2022 20:00;40;35;8;9
09.07.2022 21:00;17;17;8;8
09.07.2022 22:00;14;6;6;11
09.07.2022 23:00;6;3;4;4
10.07.2022 00:00;8;5;4;10
10.07.2022 01:00;1;4;8;3
10.07.2022 02:00;1;3;2;4
10.07.2022 03:00;1;0;2;0
10.07.2022 04:00;1;0;0;0
10.07.2022 05:00;3;0;3;1
10.07.2022 06:00;3;7;1;3
10.07.2022 07:00;8;15;8;5
10.07.2022 08:00;20;31;2;8
10.07.2022 09:00;36;36;9;13
10.07.2022 10:00;46;61;10;17
10.07.2022 11:00;69;56;10;9
10.07.2022 12:00;67;75;10;21
10.07.2022 13:00;75;47;17;7
10.07.2022 14:00;48;44;10;8
10.07.2022 15:00;51;54;7;10
10.07.2022 16:00;54;84;23;17
10.07.2022 17:00;66;50;15;11
10.07.2022 18:00;51;35;16;20
10.07.2022 19:00;34;34;9;9
10.07.2022 20:00;36;15;25;8
10.07.2022 21:00;12;8;8;5
10.07.2022 22:00;7;8;4;5
10.07.2022 23:00;2;3;4;6
11.07.2022 00:00;0;0;2;1
11.07.2022 01:00;0;0;1;1
11.07.2022 02:00;1;2;0;0
11.07.2022 03:00;0;0;0;1
11.07.2022 04:00;1;1;1;3
11.07.2022 05:00;22;10;7;11
11.07.2022 06:00;78;26;17;26
11.07.2022 07:00;107;53;21;64
11.07.2022 08:00;93;33;18;59
11.07.2022 09:00;39;22;15;48
11.07.2022 10:00;42;55;14;15
11.07.2022 11:00;56;43;17;23
11.07.2022 12:00;49;55;23;22
11.07.2022 13:00;69;60;26;23
11.07.2022 14:00;57;87;34;32
11.07.2022 15:00;83;112;43;36
11.07.2022 16:00;85;135;51;40
11.07.2022 17:00;82;129;78;32
11.07.2022 18:00;100;112;55;26
11.07.2022 19:00;66;71;39;11
11.07.2022 20:00;46;45;15;9
11.07.2022 21:00;29;33;12;7
11.07.2022 22:00;10;8;11;6
11.07.2022 23:00;3;2;6;3
12.07.2022 00:00;0;1;2;3
12.07.2022 01:00;1;0;0;2
12.07.2022 02:00;0;0;0;0
12.07.2022 03:00;0;0;1;0
12.07.2022 04:00;2;1;0;3
12.07.2022 05:00;24;14;8;11
12.07.2022 06:00;94;47;17;39
12.07.2022 07:00;159;65;32;74
12.07.2022 08:00;93;51;34;83
12.07.2022 09:00;73;64;23;42
12.07.2022 10:00;84;104;18;20
12.07.2022 11:00;86;96;28;39
12.07.2022 12:00;91;113;29;38
12.07.2022 13:00;72;117;38;25
12.07.2022 14:00;101;114;30;25
12.07.2022 15:00;123;161;53;28
12.07.2022 16:00;128;188;78;68
12.07.2022 17:00;153;183;70;40
12.07.2022 18:00;141;162;68;42
12.07.2022 19:00;105;107;50;15
12.07.2022 20:00;99;46;31;13
12.07.2022 21:00;46;27;19;14
12.07.2022 22:00;24;18;10;13
12.07.2022 23:00;2;7;9;7
13.07.2022 00:00;3;2;1;2
13.07.2022 01:00;0;0;0;0
13.07.2022 02:00;1;0;1;0
13.07.2022 03:00;0;0;0;0
13.07.2022 04:00;1;1;1;1
13.07.2022 05:00;21;14;8;7
13.07.2022 06:00;103;37;14;39
13.07.2022 07:00;142;55;37;72
13.07.2022 08:00;107;48;21;77
13.07.2022 09:00;68;51;16;37
13.07.2022 10:00;82;72;22;25
13.07.2022 11:00;86;109;16;19
13.07.2022 12:00;92;72;27;28
13.07.2022 13:00;69;105;26;23
13.07.2022 14:00;91;116;27;20
13.07.2022 15:00;127;153;54;42
13.07.2022 16:00;137;168;68;42
13.07.2022 17:00;123;169;76;51
13.07.2022 18:00;96;123;44;28
13.07.2022 19:00;73;83;40;20
13.07.2022 20:00;81;42;31;13
13.07.2022 21:00;55;39;16;11
13.07.2022 22:00;24;14;12;13
13.07.2022 23:00;1;8;5;7
14.07.2022 00:00;4;8;4;3
14.07.2022 01:00;0;2;3;1
14.07.2022 02:00;0;0;1;0
14.07.2022 03:00;0;0;0;0
14.07.2022 04:00;2;2;1;3
14.07.2022 05:00;22;9;5;7
14.07.2022 06:00;91;42;10;30
14.07.2022 07:00;113;57;14;64
14.07.2022 08:00;96;49;34;71
14.07.2022 09:00;54;68;15;33
14.07.2022 10:00;78;85;18;27
14.07.2022 11:00;70;92;28;22
14.07.2022 12:00;89;103;30;43
14.07.2022 13:00;100;101;34;15
14.07.2022 14:00;89;141;25;30
14.07.2022 15:00;108;141;40;37
14.07.2022 16:00;139;159;48;42
14.07.2022 17:00;126;182;56;54
14.07.2022 18:00;99;163;70;33
14.07.2022 19:00;99;79;36;15
14.07.2022 20:00;85;50;32;18
14.07.2022 21:00;37;26;14;5
14.07.2022 22:00;20;16;7;12
14.07.2022 23:00;3;2;13;5
15.07.2022 00:00;0;2;3;1
15.07.2022 01:00;0;0;0;1
15.07.2022 02:00;0;0;0;3
15.07.2022 03:00;0;0;1;0
15.07.2022 04:00;0;1;1;4
15.07.2022 05:00;21;13;3;9
15.07.2022 06:00;74;27;9;28
15.07.2022 07:00;99;42;22;54
15.07.2022 08:00;75;30;24;64
15.07.2022 09:00;33;46;13;29
15.07.2022 10:00;54;55;14;25
15.07.2022 11:00;76;56;18;26
15.07.2022 12:00;70;102;34;33
15.07.2022 13:00;75;112;34;24
15.07.2022 14:00;85;126;40;31
15.07.2022 15:00;111;130;44;31
15.07.2022 16:00;93;155;33;43
15.07.2022 17:00;120;115;46;34
15.07.2022 18:00;93;102;25;36
15.07.2022 19:00;72;61;27;25
15.07.2022 20:00;65;42;23;7
15.07.2022 21:00;34;24;11;8
15.07.2022 22:00;13;11;11;5
15.07.2022 23:00;2;27;12;14
16.07.2022 00:00;2;8;14;8
16.07.2022 01:00;7;4;2;7
16.07.2022 02:00;0;2;0;2
16.07.2022 03:00;1;0;2;0
16.07.2022 04:00;2;0;2;2
16.07.2022 05:00;1;3;4;5
16.07.2022 06:00;3;8;5;4
16.07.2022 07:00;19;8;4;7
16.07.2022 08:00;22;31;9;14
16.07.2022 09:00;42;52;8;26
16.07.2022 10:00;113;102;29;24
16.07.2022 11:00;138;132;33;31
16.07.2022 12:00;142;145;30;31
16.07.2022 13:00;138;150;19;25
16.07.2022 14:00;125;144;22;32
16.07.2022 15:00;143;136;38;25
16.07.2022 16:00;178;141;27;34
16.07.2022 17:00;103;135;25;25
16.07.2022 18:00;114;97;29;14
16.07.2022 19:00;97;79;24;25
16.07.2022 20:00;67;38;13;13
16.07.2022 21:00;43;32;16;11
16.07.2022 22:00;18;16;12;8
16.07.2022 23:00;7;15;6;5
17.07.2022 00:00;3;4;7;10
17.07.2022 01:00;1;3;1;3
17.07.2022 02:00;2;0;1;2
17.07.2022 03:00;0;0;1;2
17.07.2022 04:00;0;0;3;1
17.07.2022 05:00;4;0;4;2
17.07.2022 06:00;6;10;2;0
17.07.2022 07:00;12;21;3;2
17.07.2022 08:00;35;33;2;6
17.07.2022 09:00;75;82;12;12
17.07.2022 10:00;153;158;10;18
17.07.2022 11:00;188;203;14;26
17.07.2022 12:00;244;213;19;34
17.07.2022 13:00;228;212;38;28
17.07.2022 14:00;261;228;25;28
17.07.2022 15:00;212;177;34;37
17.07.2022 16:00;138;169;25;36
17.07.2022 17:00;157;152;37;23
17.07.2022 18:00;129;108;20;26
17.07.2022 19:00;110;79;18;18
17.07.2022 20:00;91;31;13;12
17.07.2022 21:00;25;19;7;8
17.07.2022 22:00;9;8;4;2
17.07.2022 23:00;3;1;4;3
18.07.2022 00:00;0;1;2;2
18.07.2022 01:00;0;0;0;3
18.07.2022 02:00;2;1;1;0
18.07.2022 03:00;1;0;0;1
18.07.2022 04:00;0;4;1;4
18.07.2022 05:00;28;16;4;9
18.07.2022 06:00;100;37;23;28
18.07.2022 07:00;126;62;29;61
18.07.2022 08:00;104;62;27;78
18.07.2022 09:00;76;64;11;31
18.07.2022 10:00;76;56;12;19
18.07.2022 11:00;75;59;22;22
18.07.2022 12:00;64;87;26;20
18.07.2022 13:00;56;85;25;15
18.07.2022 14:00;56;69;35;25
18.07.2022 15:00;88;110;46;42
18.07.2022 16:00;103;177;45;38
18.07.2022 17:00;91;132;60;37
18.07.2022 18:00;75;138;45;27
18.07.2022 19:00;75;65;22;19
18.07.2022 20:00;71;54;24;9
18.07.2022 21:00;52;47;18;12
18.07.2022 22:00;25;10;9;6
18.07.2022 23:00;10;5;8;9
19.07.2022 00:00;0;1;0;5
19.07.2022 01:00;0;0;1;2
19.07.2022 02:00;0;1;1;1
19.07.2022 03:00;0;0;1;1
19.07.2022 04:00;0;2;1;1
19.07.2022 05:00;20;17;4;8
19.07.2022 06:00;101;35;17;36
19.07.2022 07:00;126;63;26;59
19.07.2022 08:00;112;64;31;70
19.07.2022 09:00;57;61;17;27
19.07.2022 10:00;72;47;14;12
19.07.2022 11:00;56;46;15;17
19.07.2022 12:00;40;63;22;28
19.07.2022 13:00;28;60;21;16
19.07.2022 14:00;36;74;20;35
19.07.2022 15:00;61;79;20;27
19.07.2022 16:00;56;116;28;31
19.07.2022 17:00;56;130;45;27
19.07.2022 18:00;72;103;39;24
19.07.2022 19:00;61;74;29;21
19.07.2022 20:00;70;54;15;12
19.07.2022 21:00;54;20;13;18
19.07.2022 22:00;29;20;13;13
19.07.2022 23:00;4;13;3;11
20.07.2022 00:00;12;1;3;5
20.07.2022 01:00;0;1;2;1
20.07.2022 02:00;1;0;0;0
20.07.2022 03:00;5;0;0;1
20.07.2022 04:00;0;2;0;1
20.07.2022 05:00;21;13;4;10
20.07.2022 06:00;76;27;17;33
20.07.2022 07:00;100;56;28;53
20.07.2022 08:00;84;50;27;62
20.07.2022 09:00;66;69;20;36
20.07.2022 10:00;72;59;23;21
20.07.2022 11:00;58;54;18;14
20.07.2022 12:00;52;71;21;27
20.07.2022 13:00;58;69;24;22
20.07.2022 14:00;50;60;34;22
20.07.2022 15:00;58;88;31;30
20.07.2022 16:00;70;115;46;33
20.07.2022 17:00;83;82;53;24
20.07.2022 18:00;47;58;29;30
20.07.2022 19:00;28;36;31;17
20.07.2022 20:00;33;17;13;11
20.07.2022 21:00;16;16;6;9
20.07.2022 22:00;1;2;6;10
20.07.2022 23:00;2;2;1;3
21.07.2022 00:00;1;0;0;3
21.07.2022 01:00;1;1;1;1
21.07.2022 02:00;0;0;0;0
21.07.2022 03:00;0;0;1;1
21.07.2022 04:00;0;0;0;0
21.07.2022 05:00;4;3;4;3
21.07.2022 06:00;34;14;10;11
21.07.2022 07:00;52;19;20;28
21.07.2022 08:00;51;26;18;45
21.07.2022 09:00;20;31;10;20
21.07.2022 10:00;39;39;18;15
21.07.2022 11:00;32;35;21;19
21.07.2022 12:00;35;37;21;21
21.07.2022 13:00;20;12;18;10
21.07.2022 14:00;12;16;16;12
21.07.2022 15:00;29;17;10;19
21.07.2022 16:00;24;43;24;18
21.07.2022 17:00;23;43;37;20
21.07.2022 18:00;24;43;30;21
21.07.2022 19:00;24;21;23;15
21.07.2022 20:00;15;11;15;11
21.07.2022 21:00;13;9;9;6
21.07.2022 22:00;1;6;2;3
21.07.2022 23:00;1;5;7;4
22.07.2022 00:00;0;0;1;0
22.07.2022 01:00;0;0;2;2
22.07.2022 02:00;0;0;1;1
22.07.2022 03:00;0;0;0;1
22.07.2022 04:00;0;1;0;2
22.07.2022 05:00;15;6;3;8
22.07.2022 06:00;53;22;11;17
22.07.2022 07:00;65;31;13;28
22.07.2022 08:00;60;33;19;40
22.07.2022 09:00;40;29;9;27
22.07.2022 10:00;43;39;12;28
22.07.2022 11:00;60;49;24;21
22.07.2022 12:00;72;56;25;32
22.07.2022 13:00;57;84;35;28
22.07.2022 14:00;84;91;29;27
22.07.2022 15:00;100;107;35;41
22.07.2022 16:00;100;155;45;44
22.07.2022 17:00;97;114;53;33
22.07.2022 18:00;84;72;44;38
22.07.2022 19:00;76;53;34;30
22.07.2022 20:00;55;38;20;16
22.07.2022 21:00;27;23;9;6
22.07.2022 22:00;24;18;5;10
22.07.2022 23:00;1;14;6;14
23.07.2022 00:00;5;6;0;8
23.07.2022 01:00;1;1;2;0
23.07.2022 02:00;1;0;0;1
23.07.2022 03:00;0;2;1;1
23.07.2022 04:00;0;0;0;1
23.07.2022 05:00;4;4;2;4
23.07.2022 06:00;4;4;3;7
23.07.2022 07:00;15;11;3;5
23.07.2022 08:00;36;33;4;13
23.07.2022 09:00;51;57;12;28
23.07.2022 10:00;104;140;18;19
23.07.2022 11:00;150;137;27;32
23.07.2022 12:00;163;162;24;50
23.07.2022 13:00;122;180;33;39
23.07.2022 14:00;128;183;26;31
23.07.2022 15:00;137;140;36;27
23.07.2022 16:00;138;156;41;24
23.07.2022 17:00;141;122;30;25
23.07.2022 18:00;95;118;24;32
23.07.2022 19:00;87;61;15;17
23.07.2022 20:00;65;37;13;19
23.07.2022 21:00;41;27;12;11
23.07.2022 22:00;16;20;17;13
23.07.2022 23:00;10;6;5;6
24.07.2022 00:00;9;0;5;8
24.07.2022 01:00;4;5;4;3
24.07.2022 02:00;6;7;1;1
24.07.2022 03:00;4;1;1;0
24.07.2022 04:00;0;1;1;1
24.07.2022 05:00;3;4;3;3
24.07.2022 06:00;6;5;5;1
24.07.2022 07:00;19;7;4;6
24.07.2022 08:00;29;37;7;8
24.07.2022 09:00;78;90;12;21
24.07.2022 10:00;156;137;17;18
24.07.2022 11:00;198;182;36;27
24.07.2022 12:00;177;233;25;27
24.07.2022 13:00;187;204;33;31
24.07.2022 14:00;177;161;28;38
24.07.2022 15:00;149;189;38;29
24.07.2022 16:00;135;125;23;28
24.07.2022 17:00;132;137;23;29
24.07.2022 18:00;119;110;27;18
24.07.2022 19:00;120;55;14;14
24.07.2022 20:00;65;44;18;13
24.07.2022 21:00;50;27;14;11
24.07.2022 22:00;8;9;10;6
24.07.2022 23:00;5;0;0;4
25.07.2022 00:00;2;0;2;1
25.07.2022 01:00;1;1;0;2
25.07.2022 02:00;1;1;3;1
25.07.2022 03:00;2;1;0;0
25.07.2022 04:00;0;3;1;3
25.07.2022 05:00;18;10;4;6
25.07.2022 06:00;84;29;14;25
25.07.2022 07:00;111;56;28;47
25.07.2022 08:00;89;51;27;78
25.07.2022 09:00;51;41;15;28
25.07.2022 10:00;64;74;16;32
25.07.2022 11:00;58;64;22;17
25.07.2022 12:00;60;62;27;39
25.07.2022 13:00;52;80;32;24
25.07.2022 14:00;72;70;33;16
25.07.2022 15:00;84;103;38;32
25.07.2022 16:00;94;152;60;39
25.07.2022 17:00;109;132;67;56
25.07.2022 18:00;70;99;54;24
25.07.2022 19:00;64;58;29;17
25.07.2022 20:00;74;38;14;15
25.07.2022 21:00;36;24;8;6
25.07.2022 22:00;3;6;6;6
25.07.2022 23:00;5;5;6;3
26.07.2022 00:00;1;1;1;4
26.07.2022 01:00;0;2;1;3
26.07.2022 02:00;0;1;0;0
26.07.2022 03:00;0;0;1;0
26.07.2022 04:00;1;3;0;1
26.07.2022 05:00;12;10;3;9
26.07.2022 06:00;53;22;10;17
26.07.2022 07:00;65;48;22;39
26.07.2022 08:00;67;27;19;64
26.07.2022 09:00;51;30;15;24
26.07.2022 10:00;45;45;15;10
26.07.2022 11:00;47;36;18;19
26.07.2022 12:00;55;34;22;25
26.07.2022 13:00;40;75;24;20
26.07.2022 14:00;53;53;26;21
26.07.2022 15:00;79;79;32;29
26.07.2022 16:00;96;135;45;42
26.07.2022 17:00;74;77;81;32
26.07.2022 18:00;72;81;40;24
26.07.2022 19:00;41;56;28;25
26.07.2022 20:00;37;30;17;6
26.07.2022 21:00;20;13;18;7
26.07.2022 22:00;6;6;10;4
26.07.2022 23:00;2;3;2;4
27.07.2022 00:00;1;0;1;1
27.07.2022 01:00;0;0;1;2
27.07.2022 02:00;1;2;0;1
27.07.2022 03:00;0;0;2;0
27.07.2022 04:00;0;2;2;1
27.07.2022 05:00;21;13;4;12
27.07.2022 06:00;96;37;22;30
27.07.2022 07:00;121;64;26;64
27.07.2022 08:00;94;51;26;84
27.07.2022 09:00;66;75;21;26
27.07.2022 10:00;82;78;20;30
27.07.2022 11:00;78;93;20;30
27.07.2022 12:00;67;116;22;34
27.07.2022 13:00;84;114;33;30
27.07.2022 14:00;69;107;35;33
27.07.2022 15:00;100;128;74;44
27.07.2022 16:00;142;200;64;37
27.07.2022 17:00;144;185;87;46
27.07.2022 18:00;96;136;53;31
27.07.2022 19:00;112;81;32;12
27.07.2022 20:00;77;36;25;17
27.07.2022 21:00;33;30;6;13
27.07.2022 22:00;8;8;8;7
27.07.2022 23:00;1;3;6;3
28.07.2022 00:00;2;0;4;2
28.07.2022 01:00;0;2;2;1
28.07.2022 02:00;0;1;0;0
28.07.2022 03:00;0;0;2;1
28.07.2022 04:00;0;0;0;2
28.07.2022 05:00;17;12;6;8
28.07.2022 06:00;85;32;16;32
28.07.2022 07:00;120;60;24;47
28.07.2022 08:00;81;35;18;74
28.07.2022 09:00;49;70;21;27
28.07.2022 10:00;70;69;19;32
28.07.2022 11:00;73;78;20;26
28.07.2022 12:00;94;104;25;29
28.07.2022 13:00;120;110;33;26
28.07.2022 14:00;105;100;33;25
28.07.2022 15:00;105;136;53;37
28.07.2022 16:00;138;195;70;51
28.07.2022 17:00;131;166;71;42
28.07.2022 18:00;117;152;55;34
28.07.2022 19:00;101;69;38;26
28.07.2022 20:00;81;56;30;9
28.07.2022 21:00;28;26;11;10
28.07.2022 22:00;17;11;6;10
28.07.2022 23:00;4;1;7;5
29.07.2022 00:00;3;0;6;8
29.07.2022 01:00;0;3;1;5
29.07.2022 02:00;1;0;1;0
29.07.2022 03:00;0;0;2;1
29.07.2022 04:00;1;2;1;2
29.07.2022 05:00;14;9;6;6
29.07.2022 06:00;67;25;9;15
29.07.2022 07:00;76;27;19;41
29.07.2022 08:00;57;31;20;46
29.07.2022 09:00;37;25;11;18
29.07.2022 10:00;44;35;14;23
29.07.2022 11:00;22;30;10;7
29.07.2022 12:00;33;29;17;20
29.07.2022 13:00;51;58;34;20
29.07.2022 14:00;71;113;24;28
29.07.2022 15:00;91;116;41;36
29.07.2022 16:00;83;114;51;40
29.07.2022 17:00;84;91;38;23
29.07.2022 18:00;87;88;35;35
29.07.2022 19:00;87;68;22;35
29.07.2022 20:00;49;41;22;29
29.07.2022 21:00;24;20;13;14
29.07.2022 22:00;16;14;11;6
29.07.2022 23:00;9;8;28;8
30.07.2022 00:00;0;8;7;7
30.07.2022 01:00;4;1;2;3
30.07.2022 02:00;0;3;3;2
30.07.2022 03:00;0;1;0;5
30.07.2022 04:00;3;0;0;1
30.07.2022 05:00;5;2;1;5
30.07.2022 06:00;3;3;2;7
30.07.2022 07:00;16;9;3;4
30.07.2022 08:00;30;39;10;15
30.07.2022 09:00;50;56;10;15
30.07.2022 10:00;96;128;18;25
30.07.2022 11:00;101;135;27;21
30.07.2022 12:00;144;182;19;32
30.07.2022 13:00;135;181;24;39
30.07.2022 14:00;143;160;29;28
30.07.2022 15:00;176;192;40;31
30.07.2022 16:00;153;146;23;29
30.07.2022 17:00;164;113;21;23
30.07.2022 18:00;145;104;26;31
30.07.2022 19:00;104;65;24;11
30.07.2022 20:00;53;43;20;16
30.07.2022 21:00;28;27;14;16
30.07.2022 22:00;21;25;10;9
30.07.2022 23:00;4;13;5;5
31.07.2022 00:00;7;5;10;7
31.07.2022 01:00;2;4;7;2
31.07.2022 02:00;1;1;3;6
31.07.2022 03:00;2;3;1;4
31.07.2022 04:00;0;0;3;1
31.07.2022 05:00;0;1;1;1
31.07.2022 06:00;12;7;2;1
31.07.2022 07:00;11;17;3;4
31.07.2022 08:00;17;36;4;5
31.07.2022 09:00;30;57;6;16
31.07.2022 10:00;60;73;10;14
31.07.2022 11:00;103;96;13;10
31.07.2022 12:00;161;139;19;16
31.07.2022 13:00;125;110;20;26
31.07.2022 14:00;119;91;18;24
31.07.2022 15:00;137;81;21;19
31.07.2022 16:00;91;87;20;13
31.07.2022 17:00;77;61;16;11
31.07.2022 18:00;48;44;14;9
31.07.2022 19:00;18;17;10;6
31.07.2022 20:00;2;8;6;8
31.07.2022 21:00;20;6;3;4
31.07.2022 22:00;6;3;2;1
31.07.2022 23:00;1;1;3;2
01.08.2022 00:00;0;0;4;1
01.08.2022 01:00;1;0;1;0
01.08.2022 02:00;1;1;0;1
01.08.2022 03:00;0;0;0;1
01.08.2022 04:00;1;2;0;0
01.08.2022 05:00;10;5;2;3
01.08.2022 06:00;61;26;13;22
01.08.2022 07:00;80;28;28;39
01.08.2022 08:00;54;33;27;53
01.08.2022 09:00;28;34;12;29
01.08.2022 10:00;30;24;14;20
01.08.2022 11:00;52;56;21;23
01.08.2022 12:00;49;48;24;29
01.08.2022 13:00;40;55;30;21
01.08.2022 14:00;61;48;38;25
01.08.2022 15:00;68;99;34;39
01.08.2022 16:00;92;113;42;53
01.08.2022 17:00;97;134;61;39
01.08.2022 18:00;101;125;46;36
01.08.2022 19:00;77;68;28;21
01.08.2022 20:00;84;35;18;13
01.08.2022 21:00;22;26;7;7
01.08.2022 22:00;10;6;4;7
01.08.2022 23:00;1;0;7;6
02.08.2022 00:00;0;0;2;0
02.08.2022 01:00;3;0;3;3
02.08.2022 02:00;0;0;0;0
02.08.2022 03:00;1;0;1;1
02.08.2022 04:00;1;1;1;0
02.08.2022 05:00;26;11;4;8
02.08.2022 06:00;115;45;27;32
02.08.2022 07:00;158;65;33;63
02.08.2022 08:00;104;69;34;92
02.08.2022 09:00;90;81;20;27
02.08.2022 10:00;84;90;21;23
02.08.2022 11:00;103;110;19;33
02.08.2022 12:00;111;125;31;41
02.08.2022 13:00;114;107;29;23
02.08.2022 14:00;131;145;39;35
02.08.2022 15:00;121;156;55;42
02.08.2022 16:00;140;223;75;49
02.08.2022 17:00;152;227;83;67
02.08.2022 18:00;145;160;63;51
02.08.2022 19:00;140;111;43;20
02.08.2022 20:00;103;63;24;22
02.08.2022 21:00;47;28;10;16
02.08.2022 22:00;24;7;14;6
02.08.2022 23:00;6;7;6;5
03.08.2022 00:00;0;4;7;4
03.08.2022 01:00;1;2;1;1
03.08.2022 02:00;1;0;0;1
03.08.2022 03:00;0;0;1;2
03.08.2022 04:00;3;2;1;0
03.08.2022 05:00;22;9;6;9
03.08.2022 06:00;113;41;19;35
03.08.2022 07:00;164;67;27;63
03.08.2022 08:00;116;68;38;96
03.08.2022 09:00;76;72;19;38
03.08.2022 10:00;117;76;25;41
03.08.2022 11:00;123;89;13;23
03.08.2022 12:00;76;112;26;45
03.08.2022 13:00;91;95;39;21
03.08.2022 14:00;98;117;31;29
03.08.2022 15:00;98;133;56;41
03.08.2022 16:00;112;201;59;46
03.08.2022 17:00;104;163;68;38
03.08.2022 18:00;108;156;75;26
03.08.2022 19:00;127;97;33;26
03.08.2022 20:00;103;42;25;22
03.08.2022 21:00;61;39;8;16
03.08.2022 22:00;30;14;20;8
03.08.2022 23:00;5;4;17;8
04.08.2022 00:00;0;1;5;5
04.08.2022 01:00;0;2;7;2
04.08.2022 02:00;1;0;0;0
04.08.2022 03:00;0;0;1;1
04.08.2022 04:00;0;3;0;1
04.08.2022 05:00;19;18;6;6